THOR ABLESTAR DEB, 234

Orbit data source: Space-Track

THOR ABLESTAR DEB, 234 is space debris in LEO originally from a launch on Thu, 29 Jun 1961 UTC launched from the Air Force Eastern Test Range (AFETR). Debris objects in space refer to the collection of defunct objects orbiting the Earth. Examples of debris include non-operational satellites, rocket bodies, and fragments generated from explosions, collisions, or faulty payload assembly.

Loading next visibility...
Identifier
234, 1961-015BS
Orbit
LEO
Country
Flag of USUS
Related business
Manufacturer
Unknown
Mission
Spacecraft
Bus & Motor
Unknown
Mass
Unknown
Launch date (UTC)
1961-06-29 (65 years ago)
Launch vehicle
Unknown
Launch site
Air Force Eastern Test Range (AFETR)
Object type
Payload
Rocket body
Debris
Shape & HBR
Unknown shape, 0.1 m
Radar Cross Section
Small (<0.1 m²)

Expand to show TLE details & history
Last TLE update: 14 hours ago

TLE from 14 hours ago
0 THOR ABLESTAR DEB
1 00234U 61015BS  26236.35045828  .00000177  00000-0  15820-3 0  9990
2 00234  66.8782 351.5556 0063217  78.2377 282.5792 14.04140022321000
Epoch: 2026-08-24T08:24Z
TLE epoch observation values (Epoch: 2026-08-24T08:24:39.595Z)
Latitude
-0.00003°
Longitude
-107.24281°
Altitude
871.873 km
Speed
7.422 km/s
True Right ascension
23h 26m 13s
True Declination
0° 00' 00"
Sunlit
Object was in full shadow at epoch
Visualization orbit readout
Latitude
Unknown
Longitude
Unknown
Altitude
Unknown
Speed
Unknown
Apparent Right ascension
Unknown
Apparent Declination
Unknown
Sunlit
N/A
Visualization observer readout
Local Sidereal Time
14:04:30
Azimuth
Unknown
Elevation
Unknown
Doppler factor
Unknown
Orbital elements
Apogee altitude
923.739 km
Perigee altitude
831.998 km
Semi-major axis
7,256.005 km
Eccentricity
0.00632
Inclination
66.8782°
RAAN
351.5556°
Arg. of periapsis
78.2377°
True anomaly
281.87097°
Mean anomaly
282.5792°
Eccentric anomaly
282.22521°
Mean motion
3.51153 °/min
Orbital period
102.52 mins
BSTAR
0.0001582
Loading maneuver chart data...
Computing Atmospheric mass density...
Loading historical data...
Loading historical data...
Loading historical data...
Loading historical data...
Loading historical data...
Loading historical data...
Loading historical data...

Documentation

Showing up to 5 results
|